Weather History for Gage, OK

Change the Weather History Date:

Wednesday, November 21, 2012

  Actual Average Record
Temperature  
Mean Temperature 58 °F -  
Max Temperature 75 °F 57 °F 83 °F (1955)
Min Temperature 42 °F 28 °F 14 °F (2008)
Degree Days  
Heating Degree Days 6    
Growing Degree Days 8 (Base 50)    
Moisture  
Dew Point 41 °F    
Average Humidity 57    
Maximum Humidity 93    
Minimum Humidity 20    
Precipitation  
Precipitation 0.00 in - - ()
Sea Level Pressure  
Sea Level Pressure 30.06 in    
Wind  
Wind Speed 12 mph (South)    
Max Wind Speed 28 mph    
Max Gust Speed 37 mph    
Visibility 10 miles    
Events      
Averages and records for this station are not official NWS values.
T = Trace of Precipitation, MM = Missing Value Source: NWS Daily Summary

Daily Weather History Graph

Daily Weather History Graph

Search for Another Location

Airport:

Trip Planner

Search our weather history database for the weather conditions in past years. The results will help you decide how hot, cold, wet, or windy it might be!

Date:

Astronomy

Nov. 21, 2012 Rise Set
Actual Time 7:22 AM CST 5:27 PM CST
Civil Twilight 6:55 AM CST 5:54 PM CST
Nautical Twilight 6:23 AM CST 6:26 PM CST
Astronomical Twilight 5:52 AM CST 6:57 PM CST
Moon 1:34 PM CST (11/21) 12:54 AM CST (11/21)
Length of Visible Light 10h 59m
Length of Day
10h 04m
First Quarter, 62% of the Moon is Illuminated
Nov 21
First Quarter
Nov 28
Full
Dec 6
Last Quarter
Dec 13
New
Dec 19
First Quarter

Hourly Weather History & Observations

Time (CST) Temp. Windchill Dew Point Humidity Pressure Visibility Wind Dir Wind Speed Gust Speed Precip Events Conditions
12:53 AM 44.1 °F 41.5 °F 39.9 °F 85% 30.17 in 10.0 mi West 4.6 mph - N/A   Clear
1:53 AM 43.0 °F - 39.9 °F 89% 30.17 in 10.0 mi Calm Calm - N/A   Clear
2:53 AM 42.1 °F - 37.9 °F 85% 30.17 in 10.0 mi Calm Calm - N/A   Clear
3:53 AM 42.1 °F - 39.0 °F 89% 30.16 in 10.0 mi Calm Calm - N/A   Clear
4:53 AM 43.0 °F - 41.0 °F 93% 30.16 in 10.0 mi Calm Calm - N/A   Clear
5:53 AM 46.0 °F 40.2 °F 44.1 °F 93% 30.17 in 10.0 mi South 12.7 mph - N/A   Clear
6:53 AM 46.9 °F - 45.0 °F 93% 30.17 in 10.0 mi South 12.7 mph - N/A   Clear
7:53 AM 48.9 °F - 46.9 °F 93% 30.17 in 10.0 mi South 16.1 mph - N/A   Clear
8:53 AM 54.0 °F - 46.9 °F 77% 30.17 in 10.0 mi South 15.0 mph - N/A   Clear
9:53 AM 62.1 °F - 44.1 °F 52% 30.15 in 10.0 mi South 19.6 mph 27.6 mph N/A   Clear
10:53 AM 66.0 °F - 42.1 °F 42% 30.14 in 10.0 mi South 21.9 mph - N/A   Clear
11:53 AM 72.0 °F - 39.0 °F 30% 30.11 in 10.0 mi SSW 25.3 mph 32.2 mph N/A   Clear
12:53 PM 73.0 °F - 35.1 °F 25% 30.06 in 10.0 mi SSW 25.3 mph 32.2 mph N/A   Clear
1:53 PM 75.0 °F - 30.9 °F 20% 30.04 in 10.0 mi South 27.6 mph 36.8 mph N/A   Clear
2:53 PM 73.9 °F - 32.0 °F 21% 30.01 in 10.0 mi South 24.2 mph 33.4 mph N/A   Clear
3:53 PM 72.0 °F - 36.0 °F 27% 29.99 in 10.0 mi South 27.6 mph 36.8 mph N/A   Clear
4:53 PM 69.1 °F - 36.0 °F 30% 29.99 in 10.0 mi South 18.4 mph - N/A   Clear
5:53 PM 66.9 °F - 37.0 °F 33% 29.97 in 10.0 mi South 16.1 mph - N/A   Clear
6:53 PM 66.9 °F - 41.0 °F 39% 29.96 in 10.0 mi South 19.6 mph 26.5 mph N/A   Clear
7:53 PM 66.0 °F - 46.0 °F 48% 29.96 in 10.0 mi South 24.2 mph 34.5 mph N/A   Clear
8:53 PM 64.9 °F - 44.1 °F 47% 29.95 in 10.0 mi South 26.5 mph 32.2 mph N/A   Clear
9:53 PM 64.9 °F - 44.1 °F 47% 29.93 in 10.0 mi South 21.9 mph 27.6 mph N/A   Clear
10:53 PM 64.0 °F - 45.0 °F 50% 29.90 in 10.0 mi South 24.2 mph 33.4 mph N/A   Clear
11:53 PM 63.0 °F - 46.9 °F 56% 29.88 in 10.0 mi South 24.2 mph 33.4 mph N/A   Clear